• Processing (Info)

  • MPEC 2014-T11 : 2014 SD324

    The following Minor Planet Electronic Circular may be linked-to from your own Web pages, but must not otherwise be redistributed electronically.

    A form allowing access to any MPEC is at the bottom of this page.


    Read MPEC 2014-T10 Read MPEC 2014-T12


    M.P.E.C. 2014-T11                                Issued 2014 Oct. 2, 14:33 UT
    
         The Minor Planet Electronic Circulars contain information on unusual
             minor planets and routine data on comets.  They are published
       on behalf of Commission 20 of the International Astronomical Union by the
              Minor Planet Center, Smithsonian Astrophysical Observatory,
                              Cambridge, MA 02138, U.S.A.
    
                 Prepared using the Tamkin Foundation Computer Network
    
                                  MPC@CFA.HARVARD.EDU
                URL https://www.minorplanetcenter.net/    ISSN 1523-6714
    
                                      2014 SD324
    
    Observations:
         K14SW4D  C2014 09 14.27365 23 34 55.55 +11 18 28.4          20.1 VqET011703
         K14SW4D  C2014 09 14.28018 23 34 55.40 +11 18 21.0          20.3 VqET011703
         K14SW4D  C2014 09 14.28670 23 34 55.07 +11 18 13.7          18.9 VqET011703
         K14SW4D* C2014 09 30.31248 23 27 37.50 +03 10 48.0          19.3 VqET011703
         K14SW4D  C2014 09 30.32258 23 27 37.22 +03 10 24.5          19.2 VqET011703
         K14SW4D  C2014 09 30.33267 23 27 36.86 +03 09 59.9          19.6 VqET011703
         K14SW4D  C2014 09 30.34277 23 27 36.62 +03 09 36.6          18.6 VqET011703
         K14SW4D  C2014 09 30.40043 23 27 34.77 +03 07 19.2          19.1 VqET011703
         K14SW4D  C2014 09 30.40111 23 27 34.81 +03 07 17.7          19.1 VqET011703
         K14SW4D  C2014 09 30.40178 23 27 34.70 +03 07 16.5          19.4 VqET011703
         K14SW4D  C2014 09 30.40245 23 27 34.72 +03 07 14.2          19.6 VqET011703
         K14SW4D KC2014 09 30.41779 23 27 34.27 +03 06 37.9          19.0 RoET011291
         K14SW4D KC2014 09 30.41952 23 27 34.22 +03 06 33.8          19.0 RoET011291
         K14SW4D KC2014 09 30.42125 23 27 34.17 +03 06 29.6          19.1 RoET011291
         K14SW4D KC2014 09 30.92373 23 27 22.51 +02 46 20.3          19.3 RqET011621
         K14SW4D KC2014 09 30.93567 23 27 22.11 +02 45 51.9                qET011621
         K14SW4D KC2014 09 30.94762 23 27 21.79 +02 45 22.8          19.3 RqET011621
         K14SW4D KC2014 10 01.10510823 27 18.89 +02 39 07.6          19.2 RqET011V37
         K14SW4D KC2014 10 01.10788 23 27 18.79 +02 39 00.6          18.6 RqET011G48
         K14SW4D KC2014 10 01.11033023 27 18.72 +02 38 55.1          19.2 RqET011V37
         K14SW4D KC2014 10 01.11171 23 27 18.70 +02 38 51.7          18.1 RqET011G48
         K14SW4D KC2014 10 01.11543 23 27 18.64 +02 38 42.1          19.0 RqET011G48
         K14SW4D KC2014 10 01.11554423 27 18.57 +02 38 42.3          19.1 RqET011V37
         K14SW4D KC2014 10 01.16348 23 27 17.21 +02 36 46.2          19.2 RoET011291
         K14SW4D KC2014 10 01.16521 23 27 17.13 +02 36 41.4          19.0 RoET011291
         K14SW4D KC2014 10 01.16694 23 27 17.07 +02 36 37.9          18.9 RoET011291
         K14SW4D KC2014 10 02.22632 23 26 50.50 +01 53 09.0          19.0 RqET011850
         K14SW4D KC2014 10 02.24022 23 26 50.11 +01 52 34.1          18.9 RqET011850
         K14SW4D KC2014 10 02.25414 23 26 49.66 +01 51 59.5          18.9 RqET011850
         K14SW4D KC2014 10 02.26766 23 26 49.21 +01 51 26.2          18.9 RqET011850
         K14SW4D KC2014 10 02.28195 23 26 48.78 +01 50 49.8          19.2 RqET011850
         K14SW4D KC2014 10 02.29585 23 26 48.36 +01 50 15.6          18.8 RqET011850
         K14SW4D KC2014 10 02.30974 23 26 48.01 +01 49 40.6          19.0 RqET011850
         K14SW4D KC2014 10 02.32358 23 26 47.57 +01 49 06.2          19.0 RqET011850
         K14SW4D KC2014 10 02.33762 23 26 47.21 +01 48 30.7          18.9 RqET011850
    
    Observer details:
    291 LPL/Spacewatch II.  Observer T. H. Bressi.  1.8-m f/2.7 reflector + CCD.
    621 Bergisch Gladbach.  Observer W. Bickel.  0.40-m f/5.9 reflector + CCD.
    703 Catalina Sky Survey.  Observer J. A. Johnson.  Measurers R. A. Kowalski,
        S. M. Larson, F. C. Shelly, E. J. Christensen, A. R. Gibbs, A. D. Grauer,
        R. E. Hill, J. A. Johnson.  0.68-m Schmidt + CCD.
    850 Cordell-Lorenz Observatory, Sewanee.  Observers D. T. Durig,
        C. G. Steinhauer, S. R. Jackson, M. C. O. Caldwell.  0.3-m f/2.5
        Schmidt-Cassegrain + CCD.
    G48 Doc Greiner Research Obs., Rancho Hildalgo.  Observer M. Mills.  0.4-m
        f/10 Schmidt-Cassegrain + CCD.
    V37 McDonald Observatory-LCOGT ELP.  Observers E. J. Christensen, S. M. Larson,
        T. Lister.  Measurer T. Lister.  1.0-m f/8 Ritchey-Chretien + CCD.
    
    Orbital elements:
    2014 SD324                                               Earth MOID = 0.2095 AU
    Epoch 2014 Dec. 9.0 TT = JDT 2457000.5                  MPC
    M 358.91119              (2000.0)            P               Q
    n   0.24085064     Peri.  241.42242     +0.33428866     -0.94140714
    a   2.5584141      Node   189.38245     +0.93183525     +0.33725837
    e   0.5774741      Incl.   15.93678     +0.14118837     +0.00306324
    P   4.09           H   19.9           G   0.15           U   7
    Residuals in seconds of arc
    140914 703  0.2+  1.0-    140930 291  0.3+  0.1+    141001 291  0.2-  0.4-
    140914 703  0.9+  0.0     140930 291  0.3+  0.0     141001 291  0.3-  0.3+
    140914 703  1.1-  1.0+    140930 621  0.1+  0.4-    141002 850  0.2+  0.1-
    140930 703  1.1-  0.3-    140930 621  0.4-  0.0     141002 850  0.7+  0.3-
    140930 703  0.3-  0.2+    140930 621  0.3+  0.2-    141002 850  0.4+  0.1-
    140930 703  0.8-  0.4-    141001 V37  0.2+  0.3-    141002 850  0.2-  0.4+
    140930 703  0.6+  0.3+    141001 G48  0.9-  0.1-    141002 850  0.3-  0.3-
    140930 703  0.0   0.1+    141001 V37  0.0   0.1-    141002 850  0.4-  0.3+
    140930 703  0.9+  0.2+    141001 G48  0.5-  0.3+    141002 850  0.4+  0.0
    140930 703  0.4-  0.6+    141001 G48  0.2+  0.3-    141002 850  0.3-  0.3+
    140930 703  0.2+  0.1-    141001 V37  0.1+  0.3-    141002 850  0.3+  0.1-
    140930 291  0.3+  0.0     141001 291  0.2+  0.2+
    
    Ephemeris:
    2014 SD324               a,e,i = 2.56, 0.58, 16                  q = 1.0810
    Date    TT    R. A. (2000) Decl.     Delta      r     Elong.  Phase     V
    2014 09 02    23 38 21.5 +14 28 22   0.6422  1.6099   153.6    16.2    20.8
    ...
    2014 09 17    23 33 47.3 +10 16 18   0.5006  1.4976   167.2     8.5    19.9
    ...
    2014 09 25    23 30 03.9 +06 25 11   0.4414  1.4392   169.3     7.4    19.5
    ...
    2014 10 01    23 27 20.6 +02 43 35   0.4051  1.3965   164.9    10.7    19.3
    2014 10 02    23 26 56.2 +02 02 46   0.3997  1.3894   163.9    11.5    19.3
    2014 10 03    23 26 33.0 +01 20 55   0.3945  1.3825   162.7    12.4    19.3
    ...
    2014 10 09    23 24 47.4 -03 10 27   0.3674  1.3414   155.2    18.2    19.3
    ...
    2014 10 17    23 24 37.3 -09 53 30   0.3413  1.2893   144.3    26.8    19.3
    ...
    2014 11 01    23 35 11.2 -22 55 34   0.3186  1.2021   124.5    42.9    19.5
    
    A. U. Tomatic                (C) Copyright 2014 MPC           M.P.E.C. 2014-T11
    

    Read MPEC 2014-T10 Read MPEC 2014-T12


    MPEC number:

    Enter an MPEC number in one of the following forms:

    • 1997-B01 (the full form)
    • J97B01 (the packed version of the full form)
    • B01 (the abbreviated form)